Location: Pietracolora
(45.2500°N, 10.9833°E)
Time: 19:29:22
(UTC+00:00)

Daily predictions for brighter satellites

Satellite Brightness Start Highest point End
(mag) Time Altitude Azimuth Time Altitude Azimuth Time Altitude Azimuth
Cosmos 1867 4.3 15:58:43 10° NNW 16:03:37 32° NE 16:08:27 10° ESE
Meteor 1-5 Rocket 4.3 15:59:27 10° NNW 16:04:57 80° W 16:10:16 10° S
CZ-4B R/B 3.4 16:01:18 10° S 16:06:38 77° WSW 16:12:07 10° NNW
STARLINK-60 3.5 16:03:51 10° WSW 16:07:12 55° NNW 16:10:31 10° NE
YAOGAN 6 4.5 16:06:26 10° E 16:07:35 11° ENE 16:08:45 10° NE
IRS-1C Rocket 4.3 16:03:03 10° SE 16:08:06 50° ENE 16:13:11 10° N
PSLV R/B 4.1 16:08:29 10° NNE 16:12:33 53° E 16:16:32 10° S
Cosmos 2360 Rocket 4.4 16:10:38 10° WNW 16:14:02 16° NW 16:17:27 10° N
STARLINK-52 3.2 16:10:52 10° WSW 16:14:23 80° NW 16:17:55 10° NE
USA 215 3.3 16:08:09 10° NE 16:14:43 78° SE 16:21:16 10° SW
Cosmos 2278 Rocket 3.1 16:09:25 10° NNW 16:14:57 56° WSW 16:20:27 10° S
Cosmos 1782 Rocket 4.3 16:13:33 10° NNE 16:17:23 29° ENE 16:21:11 10° SE
COBE Rocket 4.2 16:14:10 10° NNE 16:18:38 44° E 16:23:10 10° S
Helios 1A Rocket 3.7 16:15:05 10° S 16:19:07 58° WSW 16:23:09 10° NNW
STARLINK-67 4.4 16:17:27 10° NW 16:19:29 18° N 16:21:14 11° NE
STARLINK-29 3.4 16:19:02 10° WSW 16:22:32 64° NNW 16:25:47 12° NE
Cosmos 614 Rocket 4.4 16:18:14 10° S 16:22:59 40° ESE 16:27:43 10° NE
Cosmos 1862 Rocket 3.9 16:20:05 10° SSW 16:24:25 68° W 16:28:51 10° N
Cosmos 2369 Rocket 3.3 16:20:18 10° N 16:24:35 22° NE 16:28:53 10° E
Cosmos 1703 Rocket 3.9 16:23:58 10° SSE 16:28:16 48° E 16:32:35 10° NNE
SMAP 3.0 16:24:45 10° SSE 16:29:21 67° ENE 16:34:00 10° N
CORIOLIS 4.2 16:25:45 10° SSE 16:31:06 61° ENE 16:36:28 10° N
SL-16 R/B 2.4 16:26:11 10° S 16:31:42 55° ESE 16:37:16 10° NNE
Okean 2 Rocket 4.3 16:28:28 10° NNE 16:31:51 20° ENE 16:35:13 10° ESE
Cosmos 1743 3.5 16:29:05 10° NNE 16:32:33 30° ENE 16:36:01 10° SE
Feng Yun 1-1 Rocket 4.1 16:27:52 10° SSE 16:33:14 75° ENE 16:38:40 10° NNW
Cosmos 1536 3.2 16:30:45 10° NNW 16:34:44 68° W 16:38:41 10° S
Cosmos 1174 4.1 16:30:57 10° SSW 16:36:00 73° ESE 16:39:39 12° NE
Sich 1 Rocket 4.1 16:33:10 10° N 16:37:15 36° ENE 16:41:17 10° SE
CZ-4B R/B 4.2 16:36:23 10° NNW 16:38:43 17° WNW 16:41:01 10° WSW
Cosmos 2237 Rocket 2.9 16:33:47 10° SW 16:39:20 54° WNW 16:44:56 10° NNE
Lacrosse 5 rocket 3.1 16:38:41 10° WNW 16:42:01 22° NNW 16:44:56 11° NNE
Cosmos 1627 Rocket 4.5 16:37:52 10° S 16:43:52 61° E 16:49:55 10° NNE
Cosmos 2195 Rocket 4.5 16:38:11 10° S 16:44:21 68° E 16:50:37 10° NNE
Cosmos 1812 4.5 16:40:54 10° SW 16:44:25 33° WNW 16:47:58 10° N
Cosmos 2219 Rocket 4.2 16:42:07 10° W 16:46:26 22° NW 16:50:49 10° N
Centaur D-1A AC-31 4.0 16:45:49 10° SSE 16:46:38 10° SSE 16:47:34 10° SE
SL-4 R/B 2.8 16:43:59 10° WNW 16:47:25 32° N 16:49:31 20° ENE
Cosmos 1943 Rocket 2.8 16:42:20 10° NNW 16:47:28 34° NE 16:52:32 10° ESE
Okean O Rocket 3.8 16:43:52 10° SSW 16:47:37 28° W 16:51:25 10° NW
STARLINK-43 3.6 16:44:10 10° SW 16:47:48 55° SE 16:50:01 22° ENE
Cosmos 2333 Rocket 4.2 16:44:10 10° W 16:48:34 22° NW 16:53:00 10° N
USA 267 3.2 16:42:15 10° ESE 16:48:48 78° NE 16:55:21 10° NW
Cosmos 1140 Rocket 3.8 16:44:25 10° S 16:49:17 46° ESE 16:53:36 13° NE
Abrixas rocket 3.3 16:47:24 10° SSW 16:50:03 28° SSE 16:51:18 21° ESE
Okean 1 3.5 16:49:12 10° SSE 16:53:02 49° E 16:56:44 11° NNE
Envisat 3.0 16:49:29 10° SSE 16:54:29 63° ENE 16:59:31 10° N
Cosmos 1092 Rocket 4.1 16:50:58 10° S 16:57:16 83° W 17:03:33 10° N
Aureole 1 Rocket 3.4 16:54:32 10° SW 16:57:25 42° WNW 17:00:42 10° N
Okean 1-7 3.0 16:53:37 10° S 16:57:58 83° E 17:02:23 10° N
USA 229 DEB 4.3 16:52:46 10° NNW 16:59:28 40° NE 17:04:59 16° E
USA 229 4.3 16:52:52 10° NNW 16:59:33 40° NE 17:05:00 16° E
Cosmos 1908 Rocket 4.3 16:55:50 10° NNW 17:00:08 55° W 17:04:22 10° S
Cosmos 1655 Rocket 4.4 16:55:10 10° SSE 17:00:54 38° E 17:06:36 10° NNE
CSL-04 Rocket 4.1 16:58:18 10° SE 17:03:05 36° ENE 17:07:54 10° N
Cosmos 407 Rocket 3.5 16:58:20 10° SSW 17:03:32 88° ESE 17:08:45 10° NNE
STARLINK-80 3.9 17:02:58 10° SSW 17:06:36 46° SE 17:07:55 32° E
COSMO-SKYMED 1 2.8 17:05:20 17° NNE 17:08:28 48° E 17:12:39 10° S
Cosmos 1300 Rocket 4.1 17:04:41 10° N 17:08:35 32° ENE 17:12:27 10° SE
YAOGAN 1 3.0 17:07:37 10° SE 17:11:37 38° ENE 17:15:38 10° N
CZ-4 R/B 1.4 17:09:02 10° SE 17:12:45 46° ENE 17:16:27 10° N
Okean-O 2.7 17:08:32 10° S 17:12:58 81° WSW 17:17:26 10° NNW
Meteor 1-19 Rocket 4.2 17:08:36 10° S 17:13:56 55° E 17:18:57 12° NNE
Cosmos 1441 Rocket 4.4 17:13:14 10° NNW 17:16:51 44° W 17:20:25 10° SSW
H-2A R/B 4.4 17:14:05 10° SSW 17:17:29 35° W 17:20:54 10° NNW
FALCON 9 DEB 4.4 17:16:02 10° W 17:19:09 30° NNW 17:19:57 27° N
NOAA 12 4.4 17:14:39 10° S 17:19:55 68° WSW 17:25:12 10° NNW
Cosmos 921 Rocket 4.3 17:20:21 10° NNW 17:24:25 43° WSW 17:28:33 10° S
CSL-04 Debris 4.2 17:19:28 10° SSE 17:24:46 56° ENE 17:30:05 10° N
NOSS 7 (H) 4.0 17:24:57 10° SW 17:28:16 83° SE 17:28:18 83° ESE
Cosmos 1975 2.7 17:24:42 10° N 17:28:43 88° ENE 17:32:44 10° S
Okean 3 3.4 17:24:55 10° S 17:29:00 57° E 17:29:51 46° NE
Cosmos 2263 4.5 17:25:31 10° NNW 17:31:06 45° ENE 17:33:01 34° ESE
S3M 3.8 17:26:12 10° N 17:32:23 68° E 17:38:28 10° SSE
SKYMED 3 4.5 17:29:41 21° NNE 17:32:35 87° E 17:36:56 10° SSW
Cosmos 2266 Rocket 4.2 17:30:14 10° SSE 17:36:20 49° E 17:40:18 22° NNE
Meteor 1-12 Rocket 4.2 17:31:09 10° N 17:36:57 60° ENE 17:42:36 10° SSE
Cosmos 1515 3.5 17:33:36 10° S 17:37:12 68° ESE 17:37:12 68° ESE
Lacrosse 5 2.2 17:33:29 10° SSW 17:38:21 47° SE 17:38:59 44° ESE
YAOGAN 6 3.1 17:37:06 10° S 17:40:35 57° W 17:44:10 10° NNW
Cosmos 1553 Rocket 4.1 17:36:38 10° N 17:43:03 79° W 17:49:27 10° S
Cosmos 2151 Rocket 3.4 17:39:10 10° N 17:43:35 69° E 17:47:57 10° SSE
Uosat 12 SS-18 rocket 4.0 17:40:20 10° NW 17:45:05 89° WSW 17:46:22 46° SE
Cosmos 1867 4.4 17:42:09 10° NW 17:47:27 52° WSW 17:52:40 10° SSE
STARLINK-48 3.5 17:44:02 10° SW 17:47:34 67° S 17:47:34 67° S
CZ-4C R/B 2.2 17:44:26 10° SSW 17:49:13 51° ESE 17:49:23 50° ESE
Meteor 2-9 Rocket 4.4 17:43:49 10° NNW 17:49:42 79° W 17:55:25 10° S
NOAA 11 4.0 17:46:17 10° SSE 17:51:43 74° ENE 17:57:13 10° N
SKYMED 2 4.3 17:53:59 22° N 17:56:35 52° WNW 18:00:47 10° SSW
Cosmos 1943 3.2 17:51:06 10° S 17:56:36 58° ESE 17:56:42 58° ESE
USA 215 3.9 17:54:37 29° NNE 17:57:29 45° NNW 18:03:37 10° W
Meteor 1-13 Rocket 4.0 17:54:39 10° S 18:00:11 65° E 18:00:22 65° E
DMSP B5D1-3 4.4 18:06:05 75° SE 18:06:05 75° SE 18:10:58 10° S
Cosmos 1656 Rocket 4.5 18:02:36 10° NNW 18:06:00 35° N 18:06:00 35° N
Cosmos 2369 Rocket 2.3 18:03:35 10° NNW 18:09:13 73° WSW 18:13:17 19° SSE
BREEZE-M R/B 4.1 18:05:27 10° WNW 18:08:07 33° WNW 18:08:07 33° WNW
Okean 2 Rocket 4.3 18:05:53 10° NNW 18:10:07 41° W 18:14:21 10° SSW
SL-16 R/B 3.9 18:11:21 10° WSW 18:16:10 27° NW 18:19:41 16° N
Cosmos 2315 Rocket 3.9 18:12:57 10° N 18:26:35 - SSE 18:18:42 69° NE
Cosmos 883 Rocket 4.4 18:13:53 10° N 18:20:15 88° W 18:26:32 10° S
Lacrosse 5 rocket 4.0 18:19:58 10° NW 18:20:34 12° NNW 18:20:34 12° NNW
Cosmos 1603 3.9 18:17:16 10° SW 18:22:58 69° WNW 18:23:45 61° NNW
SL-4 R/B 4.0 18:23:32 10° WNW 18:25:08 23° NW 18:25:08 23° NW
Cosmos 1943 Rocket 3.3 18:26:03 10° NW 18:31:17 40° WSW 18:36:26 10° S
Meteor 2-8 Rocket 4.4 18:28:15 10° N 18:40:13 11° S 18:40:22 10° S
NOSS 3-1 (C) 4.1 18:32:28 10° NW 18:40:03 75° SW 18:43:01 45° SSE
CZ-4 R/B 4.3 18:45:55 10° SW 18:48:02 14° W 18:50:10 10° WNW
Gbstr 26 Del rocket 4.3 18:43:46 10° WSW 18:49:19 58° WSW 18:49:19 58° WSW
USA 229 DEB 4.2 18:43:39 10° NW 18:50:50 62° WSW 18:52:32 50° S
USA 229 4.2 18:43:45 10° NW 18:50:55 63° WSW 18:52:33 51° S
NOSS 3-1 (A) 4.0 18:48:55 10° NW 18:56:30 84° WSW 18:56:30 84° WSW
Cosmos 2344 4.4 18:50:01 10° NW 18:59:55 83° SW 19:05:29 42° SSE
Lacrosse 5 4.2 19:16:32 10° WSW 19:18:13 20° W 19:18:13 20° W
CZ-3B R/B 4.5 19:19:58 10° SSW 19:20:02 10° SSW 19:20:02 10° SSW
